iso_date,epoch_date,Year,Hour,Min,DOY,POS_DOY,Lat,Lon,BP,Ts,Ta,has_bp,has_ts,has_ta,BuoyID,Buoy_Type,Buoy_Owner,Logistics,Hemisphere
2020-09-25T09:21:01Z,1601025661,2020,9,21,269.3896,269.3896,71.355,-148.776,1007.4,0.96,-999.0,yes,yes,no,300534060712080,BD2GI,AOML,SIQULIAQ,North
2020-09-25T10:00:02Z,1601028003,2020,10,0,269.4167,269.4167,71.354,-148.787,1007.5,0.96,-999.0,yes,yes,no,300534060712080,BD2GI,AOML,SIQULIAQ,North
2020-09-25T10:59:57Z,1601031597,2020,11,0,269.4583,269.4583,71.354,-148.805,1007.4,0.95,-999.0,yes,yes,no,300534060712080,BD2GI,AOML,SIQULIAQ,North
2020-09-25T12:00:00Z,1601035200,2020,12,0,269.5,269.5,71.355,-148.826,1007.3,0.95,-999.0,yes,yes,no,300534060712080,BD2GI,AOML,SIQULIAQ,North
2020-09-25T13:00:02Z,1601038803,2020,13,0,269.5417,269.5417,71.356,-148.848,1007.2,0.93,-999.0,yes,yes,no,300534060712080,BD2GI,AOML,SIQULIAQ,North
2020-09-25T13:59:57Z,1601042397,2020,14,0,269.5833,269.5833,71.357,-148.871,1007.3,0.91,-999.0,yes,yes,no,300534060712080,BD2GI,AOML,SIQULIAQ,North
2020-09-25T15:00:00Z,1601046000,2020,15,0,269.625,269.625,71.359,-148.894,1007.3,0.9,-999.0,yes,yes,no,300534060712080,BD2GI,AOML,SIQULIAQ,North
2020-09-25T16:00:02Z,1601049603,2020,16,0,269.6667,269.6667,71.361,-148.916,1007.3,0.88,-999.0,yes,yes,no,300534060712080,BD2GI,AOML,SIQULIAQ,North
2020-09-25T16:59:57Z,1601053197,2020,17,0,269.7083,269.7083,71.364,-148.937,1007.2,0.85,-999.0,yes,yes,no,300534060712080,BD2GI,AOML,SIQULIAQ,North
2020-09-25T18:00:00Z,1601056800,2020,18,0,269.75,269.75,71.366,-148.955,1007.4,0.82,-999.0,yes,yes,no,300534060712080,BD2GI,AOML,SIQULIAQ,North
2020-09-25T19:00:02Z,1601060403,2020,19,0,269.7917,269.7917,71.369,-148.971,1007.7,0.8,-999.0,yes,yes,no,300534060712080,BD2GI,AOML,SIQULIAQ,North
2020-09-25T19:59:57Z,1601063997,2020,20,0,269.8333,269.8333,71.37,-148.987,1007.8,0.76,-999.0,yes,yes,no,300534060712080,BD2GI,AOML,SIQULIAQ,North
2020-09-25T21:00:00Z,1601067600,2020,21,0,269.875,269.875,71.371,-149.005,1008.1,0.74,-999.0,yes,yes,no,300534060712080,BD2GI,AOML,SIQULIAQ,North
2020-09-25T22:00:02Z,1601071203,2020,22,0,269.9167,269.9167,71.372,-149.024,1008.3,0.64,-999.0,yes,yes,no,300534060712080,BD2GI,AOML,SIQULIAQ,North
2020-09-25T22:59:57Z,1601074797,2020,23,0,269.9583,269.9583,71.372,-149.043,1008.4,0.73,-999.0,yes,yes,no,300534060712080,BD2GI,AOML,SIQULIAQ,North
2020-09-26T00:00:00Z,1601078400,2020,0,0,270.0,270.0,71.373,-149.067,1008.6,0.79,-999.0,yes,yes,no,300534060712080,BD2GI,AOML,SIQULIAQ,North
2020-09-26T01:00:02Z,1601082003,2020,1,0,270.0417,270.0417,71.374,-149.091,1008.9,0.79,-999.0,yes,yes,no,300534060712080,BD2GI,AOML,SIQULIAQ,North
2020-09-26T01:59:57Z,1601085597,2020,2,0,270.0833,270.0833,71.376,-149.119,1009.0,0.69,-999.0,yes,yes,no,300534060712080,BD2GI,AOML,SIQULIAQ,North
2020-09-26T03:00:00Z,1601089200,2020,3,0,270.125,270.125,71.381,-149.154,1009.1,0.68,-999.0,yes,yes,no,300534060712080,BD2GI,AOML,SIQULIAQ,North
2020-09-26T04:00:02Z,1601092803,2020,4,0,270.1667,270.1667,71.385,-149.181,1009.4,0.68,-999.0,yes,yes,no,300534060712080,BD2GI,AOML,SIQULIAQ,North
2020-09-26T04:59:57Z,1601096397,2020,5,0,270.2083,270.2083,71.392,-149.209,1009.7,0.68,-999.0,yes,yes,no,300534060712080,BD2GI,AOML,SIQULIAQ,North
2020-09-26T06:00:00Z,1601100000,2020,6,0,270.25,270.25,71.399,-149.231,1009.9,0.67,-999.0,yes,yes,no,300534060712080,BD2GI,AOML,SIQULIAQ,North
2020-09-26T07:00:02Z,1601103603,2020,7,0,270.2917,270.2917,71.407,-149.25,1010.3,0.66,-999.0,yes,yes,no,300534060712080,BD2GI,AOML,SIQULIAQ,North
2020-09-26T07:59:57Z,1601107197,2020,8,0,270.3333,270.3333,71.415,-149.263,1010.5,0.65,-999.0,yes,yes,no,300534060712080,BD2GI,AOML,SIQULIAQ,North
2020-09-26T09:00:00Z,1601110800,2020,9,0,270.375,270.375,71.422,-149.276,1010.8,0.64,-999.0,yes,yes,no,300534060712080,BD2GI,AOML,SIQULIAQ,North
2020-09-26T10:00:02Z,1601114403,2020,10,0,270.4167,270.4167,71.43,-149.288,1011.0,0.64,-999.0,yes,yes,no,300534060712080,BD2GI,AOML,SIQULIAQ,North
2020-09-26T10:59:57Z,1601117997,2020,11,0,270.4583,270.4583,71.438,-149.299,1011.3,0.63,-999.0,yes,yes,no,300534060712080,BD2GI,AOML,SIQULIAQ,North
2020-09-26T12:00:00Z,1601121600,2020,12,0,270.5,270.5,71.446,-149.31,1011.3,0.61,-999.0,yes,yes,no,300534060712080,BD2GI,AOML,SIQULIAQ,North
2020-09-26T13:00:02Z,1601125203,2020,13,0,270.5417,270.5417,71.454,-149.323,1011.3,0.61,-999.0,yes,yes,no,300534060712080,BD2GI,AOML,SIQULIAQ,North
2020-09-26T13:59:57Z,1601128797,2020,14,0,270.5833,270.5833,71.463,-149.335,1011.4,0.57,-999.0,yes,yes,no,300534060712080,BD2GI,AOML,SIQULIAQ,North
2020-09-26T15:00:00Z,1601132400,2020,15,0,270.625,270.625,71.473,-149.347,1011.4,0.52,-999.0,yes,yes,no,300534060712080,BD2GI,AOML,SIQULIAQ,North
2020-09-26T16:00:02Z,1601136003,2020,16,0,270.6667,270.6667,71.483,-149.357,1011.6,0.51,-999.0,yes,yes,no,300534060712080,BD2GI,AOML,SIQULIAQ,North
2020-09-26T16:59:57Z,1601139597,2020,17,0,270.7083,270.7083,71.495,-149.367,1011.6,0.51,-999.0,yes,yes,no,300534060712080,BD2GI,AOML,SIQULIAQ,North
2020-09-26T18:00:00Z,1601143200,2020,18,0,270.75,270.75,71.506,-149.378,1012.0,0.52,-999.0,yes,yes,no,300534060712080,BD2GI,AOML,SIQULIAQ,North
2020-09-26T19:00:02Z,1601146803,2020,19,0,270.7917,270.7917,71.52,-149.389,1012.3,0.53,-999.0,yes,yes,no,300534060712080,BD2GI,AOML,SIQULIAQ,North
2020-09-26T19:59:57Z,1601150397,2020,20,0,270.8333,270.8333,71.533,-149.401,1012.8,0.54,-999.0,yes,yes,no,300534060712080,BD2GI,AOML,SIQULIAQ,North
2020-09-26T21:00:00Z,1601154000,2020,21,0,270.875,270.875,71.546,-149.41,1013.1,0.54,-999.0,yes,yes,no,300534060712080,BD2GI,AOML,SIQULIAQ,North
2020-09-26T22:00:02Z,1601157603,2020,22,0,270.9167,270.9167,71.559,-149.417,1013.4,0.53,-999.0,yes,yes,no,300534060712080,BD2GI,AOML,SIQULIAQ,North
2020-09-26T22:59:57Z,1601161197,2020,23,0,270.9583,270.9583,71.572,-149.423,1013.4,0.53,-999.0,yes,yes,no,300534060712080,BD2GI,AOML,SIQULIAQ,North
2020-09-27T00:00:00Z,1601164800,2020,0,0,271.0,271.0,71.583,-149.431,1013.5,0.55,-999.0,yes,yes,no,300534060712080,BD2GI,AOML,SIQULIAQ,North
2020-09-27T01:00:02Z,1601168403,2020,1,0,271.0417,271.0417,71.594,-149.442,1013.6,0.57,-999.0,yes,yes,no,300534060712080,BD2GI,AOML,SIQULIAQ,North
2020-09-27T01:59:57Z,1601171997,2020,2,0,271.0833,271.0833,71.605,-149.457,1013.9,0.57,-999.0,yes,yes,no,300534060712080,BD2GI,AOML,SIQULIAQ,North
2020-09-27T03:00:00Z,1601175600,2020,3,0,271.125,271.125,71.615,-149.473,1014.0,0.53,-999.0,yes,yes,no,300534060712080,BD2GI,AOML,SIQULIAQ,North
2020-09-27T04:00:02Z,1601179203,2020,4,0,271.1667,271.1667,71.624,-149.491,1014.1,0.52,-999.0,yes,yes,no,300534060712080,BD2GI,AOML,SIQULIAQ,North
2020-09-27T04:59:57Z,1601182797,2020,5,0,271.2083,271.2083,71.633,-149.514,1014.1,0.52,-999.0,yes,yes,no,300534060712080,BD2GI,AOML,SIQULIAQ,North
2020-09-27T06:00:00Z,1601186400,2020,6,0,271.25,271.25,71.643,-149.537,1014.2,0.5,-999.0,yes,yes,no,300534060712080,BD2GI,AOML,SIQULIAQ,North
2020-09-27T07:00:02Z,1601190003,2020,7,0,271.2917,271.2917,71.653,-149.561,1014.3,0.53,-999.0,yes,yes,no,300534060712080,BD2GI,AOML,SIQULIAQ,North
2020-09-27T07:59:57Z,1601193597,2020,8,0,271.3333,271.3333,71.663,-149.584,1014.2,0.54,-999.0,yes,yes,no,300534060712080,BD2GI,AOML,SIQULIAQ,North
2020-09-27T09:00:00Z,1601197200,2020,9,0,271.375,271.375,71.673,-149.605,1014.3,0.52,-999.0,yes,yes,no,300534060712080,BD2GI,AOML,SIQULIAQ,North
2020-09-27T10:00:02Z,1601200803,2020,10,0,271.4167,271.4167,71.683,-149.624,1014.3,0.52,-999.0,yes,yes,no,300534060712080,BD2GI,AOML,SIQULIAQ,North
2020-09-27T10:59:57Z,1601204397,2020,11,0,271.4583,271.4583,71.692,-149.642,1014.3,0.54,-999.0,yes,yes,no,300534060712080,BD2GI,AOML,SIQULIAQ,North
2020-09-27T12:00:00Z,1601208000,2020,12,0,271.5,271.5,71.701,-149.658,1014.0,0.54,-999.0,yes,yes,no,300534060712080,BD2GI,AOML,SIQULIAQ,North
2020-09-27T13:00:02Z,1601211603,2020,13,0,271.5417,271.5417,71.708,-149.673,1014.0,0.53,-999.0,yes,yes,no,300534060712080,BD2GI,AOML,SIQULIAQ,North
2020-09-27T13:59:57Z,1601215197,2020,14,0,271.5833,271.5833,71.714,-149.686,1013.9,0.52,-999.0,yes,yes,no,300534060712080,BD2GI,AOML,SIQULIAQ,North
2020-09-27T15:00:00Z,1601218800,2020,15,0,271.625,271.625,71.72,-149.701,1013.9,0.49,-999.0,yes,yes,no,300534060712080,BD2GI,AOML,SIQULIAQ,North
2020-09-27T16:00:02Z,1601222403,2020,16,0,271.6667,271.6667,71.725,-149.718,1013.8,0.48,-999.0,yes,yes,no,300534060712080,BD2GI,AOML,SIQULIAQ,North
2020-09-27T16:59:57Z,1601225997,2020,17,0,271.7083,271.7083,71.731,-149.738,1013.1,0.48,-999.0,yes,yes,no,300534060712080,BD2GI,AOML,SIQULIAQ,North
2020-09-27T18:00:00Z,1601229600,2020,18,0,271.75,271.75,71.737,-149.757,1012.4,0.48,-999.0,yes,yes,no,300534060712080,BD2GI,AOML,SIQULIAQ,North
2020-09-27T19:00:02Z,1601233203,2020,19,0,271.7917,271.7917,71.744,-149.778,1012.1,0.49,-999.0,yes,yes,no,300534060712080,BD2GI,AOML,SIQULIAQ,North
2020-09-27T19:59:57Z,1601236797,2020,20,0,271.8333,271.8333,71.751,-149.799,1012.0,0.49,-999.0,yes,yes,no,300534060712080,BD2GI,AOML,SIQULIAQ,North
2020-09-27T21:00:00Z,1601240400,2020,21,0,271.875,271.875,71.759,-149.819,1011.4,0.5,-999.0,yes,yes,no,300534060712080,BD2GI,AOML,SIQULIAQ,North
2020-09-27T22:00:02Z,1601244003,2020,22,0,271.9167,271.9167,71.768,-149.836,1011.7,0.52,-999.0,yes,yes,no,300534060712080,BD2GI,AOML,SIQULIAQ,North
2020-09-27T22:59:57Z,1601247597,2020,23,0,271.9583,271.9583,71.777,-149.85,1011.5,0.55,-999.0,yes,yes,no,300534060712080,BD2GI,AOML,SIQULIAQ,North
2020-09-28T00:00:00Z,1601251200,2020,0,0,272.0,272.0,71.785,-149.861,1011.2,0.5,-999.0,yes,yes,no,300534060712080,BD2GI,AOML,SIQULIAQ,North
2020-09-28T01:00:02Z,1601254803,2020,1,0,272.0417,272.0417,71.792,-149.871,1010.3,0.4,-999.0,yes,yes,no,300534060712080,BD2GI,AOML,SIQULIAQ,North
2020-09-28T01:59:57Z,1601258397,2020,2,0,272.0833,272.0833,71.799,-149.878,1009.5,0.35,-999.0,yes,yes,no,300534060712080,BD2GI,AOML,SIQULIAQ,North
2020-09-28T03:00:00Z,1601262000,2020,3,0,272.125,272.125,71.805,-149.887,1008.8,0.34,-999.0,yes,yes,no,300534060712080,BD2GI,AOML,SIQULIAQ,North
2020-09-28T04:00:02Z,1601265603,2020,4,0,272.1667,272.1667,71.811,-149.899,1007.9,0.32,-999.0,yes,yes,no,300534060712080,BD2GI,AOML,SIQULIAQ,North
2020-09-28T04:59:57Z,1601269197,2020,5,0,272.2083,272.2083,71.816,-149.912,1007.2,0.32,-999.0,yes,yes,no,300534060712080,BD2GI,AOML,SIQULIAQ,North
2020-09-28T06:00:00Z,1601272800,2020,6,0,272.25,272.25,71.821,-149.926,1006.3,0.31,-999.0,yes,yes,no,300534060712080,BD2GI,AOML,SIQULIAQ,North
2020-09-28T07:00:02Z,1601276403,2020,7,0,272.2917,272.2917,71.827,-149.943,1005.7,0.32,-999.0,yes,yes,no,300534060712080,BD2GI,AOML,SIQULIAQ,North
2020-09-28T07:59:57Z,1601279997,2020,8,0,272.3333,272.3333,71.834,-149.962,1004.7,0.32,-999.0,yes,yes,no,300534060712080,BD2GI,AOML,SIQULIAQ,North
2020-09-28T09:00:00Z,1601283600,2020,9,0,272.375,272.375,71.843,-149.976,1003.9,0.32,-999.0,yes,yes,no,300534060712080,BD2GI,AOML,SIQULIAQ,North
2020-09-28T10:00:02Z,1601287203,2020,10,0,272.4167,272.4167,71.851,-149.989,1003.4,0.32,-999.0,yes,yes,no,300534060712080,BD2GI,AOML,SIQULIAQ,North
2020-09-28T10:59:57Z,1601290797,2020,11,0,272.4583,272.4583,71.86,-150.001,1002.6,0.29,-999.0,yes,yes,no,300534060712080,BD2GI,AOML,SIQULIAQ,North
2020-09-28T12:00:00Z,1601294400,2020,12,0,272.5,272.5,71.868,-150.01,1001.8,0.27,-999.0,yes,yes,no,300534060712080,BD2GI,AOML,SIQULIAQ,North
2020-09-28T13:00:02Z,1601298003,2020,13,0,272.5417,272.5417,71.875,-150.016,1001.4,0.27,-999.0,yes,yes,no,300534060712080,BD2GI,AOML,SIQULIAQ,North
2020-09-28T13:59:57Z,1601301597,2020,14,0,272.5833,272.5833,71.882,-150.023,1001.3,0.27,-999.0,yes,yes,no,300534060712080,BD2GI,AOML,SIQULIAQ,North
2020-09-28T15:00:00Z,1601305200,2020,15,0,272.625,272.625,71.889,-150.025,1001.0,0.26,-999.0,yes,yes,no,300534060712080,BD2GI,AOML,SIQULIAQ,North
2020-09-28T16:00:02Z,1601308803,2020,16,0,272.6667,272.6667,71.895,-150.029,1002.5,0.24,-999.0,yes,yes,no,300534060712080,BD2GI,AOML,SIQULIAQ,North
2020-09-28T16:59:57Z,1601312397,2020,17,0,272.7083,272.7083,71.9,-150.036,1002.5,0.21,-999.0,yes,yes,no,300534060712080,BD2GI,AOML,SIQULIAQ,North
2020-09-28T18:00:00Z,1601316000,2020,18,0,272.75,272.75,71.904,-150.045,1001.9,0.19,-999.0,yes,yes,no,300534060712080,BD2GI,AOML,SIQULIAQ,North
2020-09-28T19:00:02Z,1601319603,2020,19,0,272.7917,272.7917,71.91,-150.052,1002.1,0.18,-999.0,yes,yes,no,300534060712080,BD2GI,AOML,SIQULIAQ,North
2020-09-28T19:59:57Z,1601323197,2020,20,0,272.8333,272.8333,71.915,-150.061,1001.7,0.18,-999.0,yes,yes,no,300534060712080,BD2GI,AOML,SIQULIAQ,North
2020-09-28T21:00:00Z,1601326800,2020,21,0,272.875,272.875,71.92,-150.069,1001.9,0.2,-999.0,yes,yes,no,300534060712080,BD2GI,AOML,SIQULIAQ,North
2020-09-28T22:00:02Z,1601330403,2020,22,0,272.9167,272.9167,71.926,-150.096,1002.3,0.23,-999.0,yes,yes,no,300534060712080,BD2GI,AOML,SIQULIAQ,North
2020-09-28T22:59:57Z,1601333997,2020,23,0,272.9583,272.9583,71.933,-150.083,1012.0,0.29,-999.0,yes,yes,no,300534060712080,BD2GI,AOML,SIQULIAQ,North
2020-09-29T00:00:00Z,1601337600,2020,0,0,273.0,273.0,71.939,-150.087,1012.3,0.34,-999.0,yes,yes,no,300534060712080,BD2GI,AOML,SIQULIAQ,North
2020-09-29T01:00:02Z,1601341203,2020,1,0,273.0417,273.0417,71.945,-150.091,1012.4,0.38,-999.0,yes,yes,no,300534060712080,BD2GI,AOML,SIQULIAQ,North
2020-09-29T01:59:57Z,1601344797,2020,2,0,273.0833,273.0833,71.951,-150.091,1012.9,0.33,-999.0,yes,yes,no,300534060712080,BD2GI,AOML,SIQULIAQ,North
2020-09-29T03:00:00Z,1601348400,2020,3,0,273.125,273.125,71.956,-150.092,1013.4,0.3,-999.0,yes,yes,no,300534060712080,BD2GI,AOML,SIQULIAQ,North
2020-09-29T04:00:02Z,1601352003,2020,4,0,273.1667,273.1667,71.96,-150.092,1013.8,0.29,-999.0,yes,yes,no,300534060712080,BD2GI,AOML,SIQULIAQ,North
2020-09-29T04:59:57Z,1601355597,2020,5,0,273.2083,273.2083,71.964,-150.09,1014.3,0.27,-999.0,yes,yes,no,300534060712080,BD2GI,AOML,SIQULIAQ,North
2020-09-29T06:00:00Z,1601359200,2020,6,0,273.25,273.25,71.967,-150.088,1015.0,0.28,-999.0,yes,yes,no,300534060712080,BD2GI,AOML,SIQULIAQ,North
2020-09-29T07:00:02Z,1601362803,2020,7,0,273.2917,273.2917,71.97,-150.088,1015.6,0.25,-999.0,yes,yes,no,300534060712080,BD2GI,AOML,SIQULIAQ,North
2020-09-29T07:59:57Z,1601366397,2020,8,0,273.3333,273.3333,71.972,-150.087,1016.2,0.26,-999.0,yes,yes,no,300534060712080,BD2GI,AOML,SIQULIAQ,North
2020-09-29T09:00:00Z,1601370000,2020,9,0,273.375,273.375,71.974,-150.088,1016.8,0.24,-999.0,yes,yes,no,300534060712080,BD2GI,AOML,SIQULIAQ,North
2020-09-29T10:00:02Z,1601373603,2020,10,0,273.4167,273.4167,71.977,-150.087,1017.2,0.21,-999.0,yes,yes,no,300534060712080,BD2GI,AOML,SIQULIAQ,North
2020-09-29T10:59:57Z,1601377197,2020,11,0,273.4583,273.4583,71.979,-150.087,1017.6,0.2,-999.0,yes,yes,no,300534060712080,BD2GI,AOML,SIQULIAQ,North
2020-09-29T12:00:00Z,1601380800,2020,12,0,273.5,273.5,71.981,-150.084,1018.2,0.24,-999.0,yes,yes,no,300534060712080,BD2GI,AOML,SIQULIAQ,North
2020-09-29T13:00:02Z,1601384403,2020,13,0,273.5417,273.5417,71.983,-150.083,1018.6,0.21,-999.0,yes,yes,no,300534060712080,BD2GI,AOML,SIQULIAQ,North
2020-09-29T13:59:57Z,1601387997,2020,14,0,273.5833,273.5833,71.985,-150.083,1019.1,0.2,-999.0,yes,yes,no,300534060712080,BD2GI,AOML,SIQULIAQ,North
2020-09-29T15:00:00Z,1601391600,2020,15,0,273.625,273.625,71.986,-150.078,1019.7,0.19,-999.0,yes,yes,no,300534060712080,BD2GI,AOML,SIQULIAQ,North
2020-09-29T16:00:02Z,1601395203,2020,16,0,273.6667,273.6667,71.987,-150.077,1020.2,0.17,-999.0,yes,yes,no,300534060712080,BD2GI,AOML,SIQULIAQ,North
2020-09-29T16:59:57Z,1601398797,2020,17,0,273.7083,273.7083,71.987,-150.077,1020.8,0.13,-999.0,yes,yes,no,300534060712080,BD2GI,AOML,SIQULIAQ,North
2020-09-29T18:00:00Z,1601402400,2020,18,0,273.75,273.75,71.988,-150.08,1021.3,0.11,-999.0,yes,yes,no,300534060712080,BD2GI,AOML,SIQULIAQ,North
2020-09-29T19:00:02Z,1601406003,2020,19,0,273.7917,273.7917,71.989,-150.083,1021.6,0.11,-999.0,yes,yes,no,300534060712080,BD2GI,AOML,SIQULIAQ,North
2020-09-29T19:59:57Z,1601409597,2020,20,0,273.8333,273.8333,71.991,-150.087,1022.4,0.11,-999.0,yes,yes,no,300534060712080,BD2GI,AOML,SIQULIAQ,North
2020-09-29T21:00:00Z,1601413200,2020,21,0,273.875,273.875,71.993,-150.092,1022.9,0.11,-999.0,yes,yes,no,300534060712080,BD2GI,AOML,SIQULIAQ,North
2020-09-29T22:00:02Z,1601416803,2020,22,0,273.9167,273.9167,71.996,-150.096,1023.4,0.12,-999.0,yes,yes,no,300534060712080,BD2GI,AOML,SIQULIAQ,North
2020-09-29T22:59:57Z,1601420397,2020,23,0,273.9583,273.9583,71.999,-150.097,1023.7,0.12,-999.0,yes,yes,no,300534060712080,BD2GI,AOML,SIQULIAQ,North
2020-09-30T00:00:00Z,1601424000,2020,0,0,274.0,274.0,72.002,-150.096,1023.9,0.11,-999.0,yes,yes,no,300534060712080,BD2GI,AOML,SIQULIAQ,North
2020-09-30T01:00:02Z,1601427603,2020,1,0,274.0417,274.0417,72.005,-150.097,1024.2,0.11,-999.0,yes,yes,no,300534060712080,BD2GI,AOML,SIQULIAQ,North
2020-09-30T01:59:57Z,1601431197,2020,2,0,274.0833,274.0833,72.008,-150.095,1024.4,0.07,-999.0,yes,yes,no,300534060712080,BD2GI,AOML,SIQULIAQ,North
2020-09-30T03:00:00Z,1601434800,2020,3,0,274.125,274.125,72.01,-150.094,1024.5,0.01,-999.0,yes,yes,no,300534060712080,BD2GI,AOML,SIQULIAQ,North
2020-09-30T04:00:02Z,1601438403,2020,4,0,274.1667,274.1667,72.011,-150.093,1024.8,-0.02,-999.0,yes,yes,no,300534060712080,BD2GI,AOML,SIQULIAQ,North
2020-09-30T04:59:57Z,1601441997,2020,5,0,274.2083,274.2083,72.012,-150.096,1025.1,-0.07,-999.0,yes,yes,no,300534060712080,BD2GI,AOML,SIQULIAQ,North
2020-09-30T06:00:00Z,1601445600,2020,6,0,274.25,274.25,72.013,-150.101,1025.4,-0.09,-999.0,yes,yes,no,300534060712080,BD2GI,AOML,SIQULIAQ,North
2020-09-30T07:00:02Z,1601449203,2020,7,0,274.2917,274.2917,72.014,-150.108,1025.7,-0.12,-999.0,yes,yes,no,300534060712080,BD2GI,AOML,SIQULIAQ,North
2020-09-30T07:59:57Z,1601452797,2020,8,0,274.3333,274.3333,72.016,-150.114,1025.9,-0.11,-999.0,yes,yes,no,300534060712080,BD2GI,AOML,SIQULIAQ,North
2020-09-30T09:00:00Z,1601456400,2020,9,0,274.375,274.375,72.019,-150.122,1025.9,-0.12,-999.0,yes,yes,no,300534060712080,BD2GI,AOML,SIQULIAQ,North
2020-09-30T10:00:02Z,1601460003,2020,10,0,274.4167,274.4167,72.023,-150.128,1025.8,-0.13,-999.0,yes,yes,no,300534060712080,BD2GI,AOML,SIQULIAQ,North
2020-09-30T10:59:57Z,1601463597,2020,11,0,274.4583,274.4583,72.027,-150.132,1025.9,-0.12,-999.0,yes,yes,no,300534060712080,BD2GI,AOML,SIQULIAQ,North
2020-09-30T12:00:00Z,1601467200,2020,12,0,274.5,274.5,72.031,-150.133,1025.7,-0.12,-999.0,yes,yes,no,300534060712080,BD2GI,AOML,SIQULIAQ,North
2020-09-30T13:00:02Z,1601470803,2020,13,0,274.5417,274.5417,72.033,-150.133,1025.2,-0.13,-999.0,yes,yes,no,300534060712080,BD2GI,AOML,SIQULIAQ,North
2020-09-30T13:59:57Z,1601474397,2020,14,0,274.5833,274.5833,72.036,-150.133,1024.9,-0.04,-999.0,yes,yes,no,300534060712080,BD2GI,AOML,SIQULIAQ,North
2020-09-30T15:00:00Z,1601478000,2020,15,0,274.625,274.625,72.038,-150.134,1024.6,-0.05,-999.0,yes,yes,no,300534060712080,BD2GI,AOML,SIQULIAQ,North
2020-09-30T16:00:02Z,1601481603,2020,16,0,274.6667,274.6667,72.039,-150.138,1024.7,-0.06,-999.0,yes,yes,no,300534060712080,BD2GI,AOML,SIQULIAQ,North
2020-09-30T16:59:57Z,1601485197,2020,17,0,274.7083,274.7083,72.041,-150.143,1024.7,-0.05,-999.0,yes,yes,no,300534060712080,BD2GI,AOML,SIQULIAQ,North
2020-09-30T18:00:00Z,1601488800,2020,18,0,274.75,274.75,72.041,-150.152,1024.4,-0.02,-999.0,yes,yes,no,300534060712080,BD2GI,AOML,SIQULIAQ,North
2020-09-30T19:00:02Z,1601492403,2020,19,0,274.7917,274.7917,72.043,-150.162,1023.9,0.0,-999.0,yes,yes,no,300534060712080,BD2GI,AOML,SIQULIAQ,North
2020-09-30T19:59:57Z,1601495997,2020,20,0,274.8333,274.8333,72.045,-150.175,1023.8,0.07,-999.0,yes,yes,no,300534060712080,BD2GI,AOML,SIQULIAQ,North
2020-09-30T21:00:00Z,1601499600,2020,21,0,274.875,274.875,72.049,-150.188,1023.2,-0.02,-999.0,yes,yes,no,300534060712080,BD2GI,AOML,SIQULIAQ,North
2020-09-30T22:00:02Z,1601503203,2020,22,0,274.9167,274.9167,72.051,-150.2,1022.4,0.0,-999.0,yes,yes,no,300534060712080,BD2GI,AOML,SIQULIAQ,North
2020-09-30T22:59:57Z,1601506797,2020,23,0,274.9583,274.9583,72.055,-150.213,1021.6,0.05,-999.0,yes,yes,no,300534060712080,BD2GI,AOML,SIQULIAQ,North
2020-10-01T00:00:00Z,1601510400,2020,0,0,275.0,275.0,72.058,-150.224,1021.0,0.14,-999.0,yes,yes,no,300534060712080,BD2GI,AOML,SIQULIAQ,North
2020-10-01T01:00:02Z,1601514003,2020,1,0,275.0417,275.0417,72.062,-150.235,1020.7,0.21,-999.0,yes,yes,no,300534060712080,BD2GI,AOML,SIQULIAQ,North
2020-10-01T01:59:57Z,1601517597,2020,2,0,275.0833,275.0833,72.112,-150.128,1020.2,0.23,-999.0,yes,yes,no,300534060712080,BD2GI,AOML,SIQULIAQ,North
2020-10-01T03:00:00Z,1601521200,2020,3,0,275.125,275.125,72.069,-150.254,1019.5,0.34,-999.0,yes,yes,no,300534060712080,BD2GI,AOML,SIQULIAQ,North
2020-10-01T04:00:02Z,1601524803,2020,4,0,275.1667,275.1667,72.072,-150.261,1018.8,0.34,-999.0,yes,yes,no,300534060712080,BD2GI,AOML,SIQULIAQ,North
2020-10-01T04:59:57Z,1601528397,2020,5,0,275.2083,275.2083,72.075,-150.267,1018.1,0.35,-999.0,yes,yes,no,300534060712080,BD2GI,AOML,SIQULIAQ,North
2020-10-01T06:00:00Z,1601532000,2020,6,0,275.25,275.25,72.076,-150.276,1017.6,0.32,-999.0,yes,yes,no,300534060712080,BD2GI,AOML,SIQULIAQ,North
2020-10-01T07:00:02Z,1601535603,2020,7,0,275.2917,275.2917,72.076,-150.29,1017.3,0.33,-999.0,yes,yes,no,300534060712080,BD2GI,AOML,SIQULIAQ,North
2020-10-01T07:59:57Z,1601539197,2020,8,0,275.3333,275.3333,72.076,-150.31,1016.7,0.38,-999.0,yes,yes,no,300534060712080,BD2GI,AOML,SIQULIAQ,North
2020-10-01T09:00:00Z,1601542800,2020,9,0,275.375,275.375,72.076,-150.334,1016.2,0.44,-999.0,yes,yes,no,300534060712080,BD2GI,AOML,SIQULIAQ,North
2020-10-01T10:00:02Z,1601546403,2020,10,0,275.4167,275.4167,72.078,-150.364,1016.0,0.47,-999.0,yes,yes,no,300534060712080,BD2GI,AOML,SIQULIAQ,North
2020-10-01T10:59:57Z,1601549997,2020,11,0,275.4583,275.4583,72.081,-150.392,1015.6,0.52,-999.0,yes,yes,no,300534060712080,BD2GI,AOML,SIQULIAQ,North
2020-10-01T12:00:00Z,1601553600,2020,12,0,275.5,275.5,72.084,-150.421,1015.4,0.52,-999.0,yes,yes,no,300534060712080,BD2GI,AOML,SIQULIAQ,North
2020-10-01T13:00:02Z,1601557203,2020,13,0,275.5417,275.5417,72.088,-150.451,1015.1,0.63,-999.0,yes,yes,no,300534060712080,BD2GI,AOML,SIQULIAQ,North
2020-10-01T13:59:57Z,1601560797,2020,14,0,275.5833,275.5833,72.093,-150.48,1015.1,0.66,-999.0,yes,yes,no,300534060712080,BD2GI,AOML,SIQULIAQ,North
2020-10-01T15:00:00Z,1601564400,2020,15,0,275.625,275.625,72.097,-150.511,1015.1,0.5,-999.0,yes,yes,no,300534060712080,BD2GI,AOML,SIQULIAQ,North
2020-10-01T16:00:02Z,1601568003,2020,16,0,275.6667,275.6667,72.102,-150.541,1015.1,0.49,-999.0,yes,yes,no,300534060712080,BD2GI,AOML,SIQULIAQ,North
2020-10-01T16:59:57Z,1601571597,2020,17,0,275.7083,275.7083,72.106,-150.568,1014.9,0.68,-999.0,yes,yes,no,300534060712080,BD2GI,AOML,SIQULIAQ,North
2020-10-01T18:00:00Z,1601575200,2020,18,0,275.75,275.75,72.11,-150.593,1015.1,0.65,-999.0,yes,yes,no,300534060712080,BD2GI,AOML,SIQULIAQ,North
2020-10-01T19:00:02Z,1601578803,2020,19,0,275.7917,275.7917,72.112,-150.617,1015.2,0.66,-999.0,yes,yes,no,300534060712080,BD2GI,AOML,SIQULIAQ,North
2020-10-01T19:59:57Z,1601582397,2020,20,0,275.8333,275.8333,72.114,-150.644,1015.2,0.68,-999.0,yes,yes,no,300534060712080,BD2GI,AOML,SIQULIAQ,North
2020-10-01T21:00:00Z,1601586000,2020,21,0,275.875,275.875,72.115,-150.673,1015.2,0.74,-999.0,yes,yes,no,300534060712080,BD2GI,AOML,SIQULIAQ,North
2020-10-01T22:00:02Z,1601589603,2020,22,0,275.9167,275.9167,72.115,-150.708,1015.2,0.76,-999.0,yes,yes,no,300534060712080,BD2GI,AOML,SIQULIAQ,North
2020-10-01T22:59:57Z,1601593197,2020,23,0,275.9583,275.9583,72.116,-150.746,1015.4,0.78,-999.0,yes,yes,no,300534060712080,BD2GI,AOML,SIQULIAQ,North
2020-10-02T00:00:00Z,1601596800,2020,0,0,276.0,276.0,72.117,-150.788,1015.4,0.8,-999.0,yes,yes,no,300534060712080,BD2GI,AOML,SIQULIAQ,North
2020-10-02T01:00:02Z,1601600403,2020,1,0,276.0417,276.0417,72.117,-150.788,1015.6,0.8,-999.0,yes,yes,no,300534060712080,BD2GI,AOML,SIQULIAQ,North
2020-10-02T01:59:57Z,1601603997,2020,2,0,276.0833,276.0833,72.119,-150.867,1015.6,0.79,-999.0,yes,yes,no,300534060712080,BD2GI,AOML,SIQULIAQ,North
2020-10-02T03:00:00Z,1601607600,2020,3,0,276.125,276.125,72.121,-150.908,1015.4,0.77,-999.0,yes,yes,no,300534060712080,BD2GI,AOML,SIQULIAQ,North